FW2487 Weather Reports


Display with metric or nautical units.
time (UTC)temp
F
wind
direction
speed
MPH
gust
MPH
rain 1hr
in
rain 24hr
in
rain mn
in
humidity
%
barometer
mb
20260504021606 79 8 2.0 4.0 0.00 0.00 0.00 35 1009.0
20260504020036 80 15 4.0 7.0 0.00 0.00 0.00 33 1009.1
20260504014532 80 343 4.0 8.0 0.00 0.00 0.00 32 1009.2
20260504013033 81 332 3.0 7.0 0.00 0.00 0.00 31 1009.3
20260504011537 83 345 4.0 7.0 0.00 0.00 0.00 31 1009.5
20260504001610 83 4 5.0 11.0 0.00 0.00 0.00 30 1010.0
20260504000036 84 28 6.0 11.0 0.00 0.00 0.00 30 1010.1
20260503234535 83 29 6.0 11.0 0.00 0.00 0.00 30 1010.2
20260503233037 84 14 7.0 11.0 0.00 0.00 0.00 29 1010.3
20260503231535 85 33 5.0 11.0 0.00 0.00 0.00 28 1010.6
20260503230106 84 54 6.0 13.0 0.00 0.00 0.00 29 1010.8
20260503224534 84 30 7.0 14.0 0.00 0.00 0.00 30 1011.0
20260503223036 85 47 6.0 11.0 0.00 0.00 0.00 30 1011.3
20260503221534 84 35 7.0 11.0 0.00 0.00 0.00 30 1011.5
20260503220036 84 72 4.0 10.0 0.00 0.00 0.00 29 1011.7
20260503214535 84 45 7.0 12.0 0.00 0.00 0.00 31 1011.8
20260503213035 83 48 7.0 14.0 0.00 0.00 0.00 31 1012.0
20260503211534 83 44 10.0 17.0 0.00 0.00 0.00 31 1012.2
20260503210111 83 49 10.0 18.0 0.00 0.00 0.00 31 1012.5
20260503204535 82 42 10.0 18.0 0.00 0.00 0.00 31 1012.6
20260503203115 83 55 7.0 16.0 0.00 0.00 0.00 29 1012.7
20260503201643 83 78 5.0 12.0 0.00 0.00 0.00 28 1012.9
20260503200036 83 89 4.0 10.0 0.00 0.00 0.00 28 1013.1
20260503194530 82 106 3.0 8.0 0.00 0.00 0.00 29 1013.3
20260503193032 82 104 4.0 11.0 0.00 0.00 0.00 29 1013.3
20260503191535 82 73 6.0 12.0 0.00 0.00 0.00 30 1013.4
20260503190034 81 87 5.0 10.0 0.00 0.00 0.00 32 1013.5
20260503184535 79 79 1.0 8.0 0.00 0.00 0.00 37 1013.7
20260503183034 77 315 2.0 7.0 0.00 0.00 0.00 42 1013.8
20260503181535 76 333 3.0 7.0 0.00 0.00 0.00 44 1013.9
20260503180036 76 334 2.0 6.0 0.00 0.00 0.00 45 1014.1
20260503173037 74 262 1.0 4.0 0.00 0.00 0.00 45 1014.4
20260503171535 73 309 0.0 4.0 0.00 0.00 0.00 46 1014.5
20260503110107 47 164 2.0 4.0 0.00 0.00 0.00 85 1014.9
20260503081534 50 102 0.0 3.0 0.00 0.00 0.00 82 1014.9
20260503071532 52 185 2.0 4.0 0.00 0.00 0.00 83 1014.9
20260503054605 56 185 3.0 6.0 0.00 0.00 0.00 79 1014.6
20260503053036 56 153 3.0 5.0 0.00 0.00 0.00 77 1014.5
20260503051536 57 112 0.0 2.0 0.00 0.00 0.00 75 1014.5
20260503050035 58 159 3.0 4.0 0.00 0.00 0.00 74 1014.5
20260503044535 58 190 1.0 4.0 0.00 0.00 0.00 73 1014.5
20260503043037 59 186 0.0 3.0 0.00 0.00 0.00 70 1014.4
20260503041536 61 198 1.0 4.0 0.00 0.00 0.00 68 1014.2
20260503040040 63 3 0.0 3.0 0.00 0.00 0.00 64 1014.0
20260503034533 64 95 0.0 2.0 0.00 0.00 0.00 60 1013.8
20260503033036 65 155 3.0 5.0 0.00 0.00 0.00 61 1013.5
20260503031643 66 164 2.0 5.0 0.00 0.00 0.00 64 1013.2
20260503030045 67 162 3.0 4.0 0.00 0.00 0.00 65 1012.9
20260503024610 68 157 2.0 4.0 0.00 0.00 0.00 63 1012.7
20260503023036 69 157 0.0 1.0 0.00 0.00 0.00 59 1012.6